Regional Weather Roundup
Issued by NWS Kansas City/Pleasant Hill, MO

Home | Current Version | Previous Version | Text Only | Print | Product List | Glossary On
Versions: 1 2 3 4 5 6 7 8 9 10 11 12 13 14 15 16 17 18 19 20 21 22 23 24 25 26 27 28 29 30 31 32 33 34 35 36 37 38 39 40 41 42 43 44 45 46 47 48 49 50
000
ASUS43 KEAX 212211
RWREAX

WEATHER ROUNDUP FOR EASTERN KANSAS AND NORTHWEST MISSOURI
NATIONAL WEATHER SERVICE KANSAS CITY/PLEASANT HILL MO
400 PM CST SUN DEC 21 2014

KSZ040-057-103>105-MOZ028-029-037-043-212300-
...KANSAS CITY METROPOLITAN AREA...

CITY           SKY/WX    TMP DP  RH WIND       PRES   REMARKS
K.C. INTL      CLOUDY    45  39  79 S16       29.83F
K.C. DOWNTOWN  CLOUDY    47  39  74 S13       29.85S
LEES SUMMIT    CLOUDY    44  41  89 S8        29.86F
OLATHE - IXD   CLOUDY    44  40  85 S15       29.84F
OLATHE - OJC   CLOUDY    44  41  89 S13       29.83F FOG
LAWRENCE       CLOUDY    45  40  82 S12       29.83S

$$

MOZ001>008-011>017-020>025-030>033-038>040-044>046-053-054-212300-
...NORTHERN AND CENTRAL MISSOURI...

CITY           SKY/WX    TMP DP  RH WIND       PRES   REMARKS
ST. JOSEPH     CLOUDY    43  39  86 S10       29.83S
MOSBY          CLOUDY    45  37  76 S9        29.85S
WARRENSBURG    CLOUDY    43  41  93 SE9       29.88F FOG
WHITEMAN AFB   CLOUDY    43  40  88 S10       29.89S
CLINTON        CLOUDY    45  41  87 S9        29.91S
SEDALIA        CLOUDY    45  39  79 SE13      29.91S
WARSAW         NOT AVBL
MARSHALL       CLOUDY    46  43  87 S14       29.91F
CHILLICOTHE      N/A     45  40  82 S9        29.88F
MOBERLY        CLOUDY    45  36  70 S9        29.92F
KIRKSVILLE     CLOUDY    44  39  82 S13       29.90F

$$

MOZ041-047>049-056>058-063>065-088>090-097-212300-
...EASTERN AND SOUTHERN MISSOURI...

CITY           SKY/WX    TMP DP  RH WIND       PRES   REMARKS
ST. LOUIS INTL CLOUDY    44  32  62 S16G24    30.03F
SPIRIT OF STL  CLOUDY    42  33  70 VRB6      30.02F
COLUMBIA       CLOUDY    43  38  82 S13       29.93F
JEFFERSON CITY CLOUDY    44  37  76 SE13      29.95F
MEXICO         CLOUDY    45  41  87 SE12      29.95F
HANNIBAL       CLOUDY    45  32  61 S10G16    29.96S
ROLLA          CLOUDY    39  35  86 S10       29.96F WCI  32
LEBANON        CLOUDY    41  36  81 S12       29.95R WCI  34
OSAGE BEACH    CLOUDY    45  36  70 S10       29.94S
SPRINGFIELD    CLOUDY    42  36  79 S14       29.91F WCI  35
BRANSON        CLOUDY    45  36  70 SE8       29.94F
NEVADA         CLOUDY    45  41  87 SE10      29.89F
JOPLIN         CLOUDY    48  38  68 S14       29.88F
WEST PLAINS    CLOUDY    41  33  73 SE10      29.98F WCI  35

$$

IAZ060-094-KSZ022-034>040-054-083-096-NEZ052-066-093-212300-
...KANSAS...SOUTHEAST NEBRASKA AND IOWA...

CITY           SKY/WX    TMP DP  RH WIND       PRES   REMARKS
TOPEKA           N/A    N/A N/A N/A MISG      29.81F
MANHATTAN      CLOUDY    44  42  93 S10       29.76F
EMPORIA        CLOUDY    43  42  97 S14       29.78F FOG
CHANUTE        CLOUDY    46  41  82 S13       29.84F
WICHITA        DRIZZLE   46  43  89 S15       29.74F FOG
OMAHA          CLOUDY    42  38  85 S15       29.74F WCI  34
LINCOLN        CLOUDY    42  39  89 S18       29.71F WCI  34
FALLS CITY     CLOUDY    43  39  86 S14       29.79S
LAMONI         CLOUDY    41  39  93 S8        29.83S
DES MOINES     CLOUDY    42  37  82 S15       29.82F WCI  34

$$




USA.gov is the U.S. government's official web portal to all federal, state and local government web resources and services.